Location: La Junie
(44.7428°N, 2.1773°E)
Time: 07:44:01
(UTC+00:00)

Cosmos 2322 - Pass Details

Date: 15 May 2026
Orbit: 839 x 853 km, 71.0° (Epoch: 5 June)

Event Time Altitude Azimuth Distance (km) Brightness Sun altitude
Rises 23:34:24 0° 328° (NNW) 3,422 7.8 -26.1°
Reaches altitude 10° 23:36:59 10° 322° (NW) 2,480 6.8 -26.2°
Enters shadow 23:42:15 41° 254° (WSW) 1,202 4.3 -26.2°
